{"data":{"norad_id":52542,"epoch":"2026-05-24T17:22:55.201728Z","epoch_age_seconds":102873,"freshness":"FRESH","line1":"1 52542U 22051K   26144.72425002  .00000150  00000+0  27481-4 0  9998","line2":"2 52542  53.2143 147.7879 0001104  73.5228 286.5885 15.08835308222924","mean_motion":15.08835308,"eccentricity":0.0001104,"inclination_deg":53.2143,"raan_deg":147.7879,"arg_perigee_deg":73.5228,"mean_anomaly_deg":286.5885,"bstar":2.7481e-5,"rev_number":22292,"period_min":95.437851458338,"perigee_km":538.99399498995,"apogee_km":540.52146614646,"semimajor_km":6917.8947305682,"source":"CELESTRAK","updated_at":"2026-05-25T13:38:17.162836Z"}}